www.pogodaiklimat.ru

Погода и климат >> Архив погоды >> Франция >> Соленцара


ПОГОДА в Соленцаре

  • Прогноз погоды в Соленцаре
  • Монитор погоды в Соленцаре

АРХИВ ПОГОДЫ в Соленцаре

Время (UTC), дата Ветер
(напр.,м/с)
 
Видим.   Явления Облачность Т
(С)
Тd
(С)
f
(%)
Тe
(С)
Тes
(С)
Комфортность P
(гПа)
Po
(гПа)
Тmin
(С)
Tmax
(С)
R
(мм)
R24
(мм)
S
(см)
10 14.08 В 2 50 км н/о +29.1 +19.1 55 +35 +35 очень
душно
1013.0 1011.1
11 14.08 ЮВ 2 55 км н/о +28.2 +19.4 59 +34 +34 очень
душно
1013.1 1011.2
12 14.08 ЮВ 2
{5}
19 км н/о +28.8 +19.1 56 +34 +34 очень
душно
1013.1 1011.2
13 14.08 В 2-3
{3}
17 км н/о +29.1 +18.5 53 +34 +34 очень
душно
1013.0 1011.1
14 14.08 ЮВ 2-3
{3}
45 км н/о +29.3 +16.1 45 +32 +32 душно 1012.9 1011.0
15 14.08 В 2-3
{3}
18 км н/о +29.8 +14.4 39 +32 +32 душно 1012.9 1011.0
16 14.08 В 1-2
{3}
18 км н/о +29.4 +14.8 41 +32 +32 душно 1012.8 1010.9
17 14.08 В 1 60 км н/о +29.1 +14.5 41 +31 +31 жарко 1013.0 1011.1
18 14.08 В 1
{2}
60 км н/о +27.7 +14.7 45 +30 +30 жарко 1013.3 1011.4 +24.2 +29.9
19 14.08 З 1-2
{2}
60 км н/о +25.3 +14.7 52 +28 +28 жарко 1013.6 1011.6
20 14.08 З 2-3
{3}
60 км н/о +24.4 +14.5 54 +27 +27 жарко 1014.2 1012.2
21 14.08 З 2-3
{3}
60 км н/о +24.2 +14.3 54 +27 +27 жарко 1014.3 1012.3
22 14.08 З 2-3
{3}
60 км н/о +23.7 +13.8 54 +26 +26 жарко 1014.5 1012.5
23 14.08 С 2 60 км н/о +23.1 +15.4 62 +27 +27 душно 1015.4 1013.4
00 15.08 З 1-2
{2}
60 км н/о +23.0 +15.1 61 +27 +27 душно 1015.3 1013.3
01 15.08 З 2-2
{2}
60 км н/о +22.8 +13.8 57 +26 +26 жарко 1015.1 1013.1
02 15.08 З 2-3
{3}
60 км н/о +22.4 +14.3 60 +26 +26 жарко 1014.9 1012.9
03 15.08 З 2-3
{3}
60 км н/о +21.9 +14.0 61 +25 +25 комфорт 1015.1 1013.1
04 15.08 З 2-3
{3}
60 км н/о +21.8 +14.2 62 +25 +25 комфорт 1015.1 1013.1
05 15.08 З 3-3
{5}
50 км н/о +21.7 +14.1 62 +25 +25 комфорт 1015.5 1013.5
06 15.08 З 1
{6}
55 км н/о +24.1 +13.9 53 +26 +26 жарко 1015.9 1013.9 +21.6 +27.7
07 15.08 штиль 0-1
{2}
55 км н/о +27.5 +18.5 58 +32 +32 очень
душно
1015.8 1013.9
08 15.08 В 2-2
{2}
60 км н/о +28.1 +15.0 45 +31 +31 душно 1015.8 1013.9
09 15.08 ЮВ 2
{6}
60 км н/о +28.6 +17.5 51 +33 +33 очень
душно
1015.8 1013.9
10 15.08 ЮВ 3-4
{4}
55 км н/о +28.9 +18.7 54 +34 +34 очень
душно
1015.5 1013.6
11 15.08 ЮВ 3 50 км н/о +28.6 +19.0 56 +34 +34 очень
душно
1015.3 1013.4
12 15.08 ЮВ 3-4
{4}
40 км н/о +29.2 +17.7 50 +34 +34 очень
душно
1014.9 1013.0
13 15.08 ЮВ 3 19 км н/о +29.2 +18.9 54 +35 +35 очень
душно
1014.6 1012.7
14 15.08 В 2 35 км н/о +28.8 +19.1 56 +34 +34 очень
душно
1014.1 1012.2
15 15.08 СВ 2-4
{4}
55 км н/о +27.2 +19.0 61 +32 +32 очень
душно
1014.0 1012.1
16 15.08 СВ 3 35 км н/о +28.0 +19.8 61 +34 +34 очень
душно
1013.8 1011.9
17 15.08 СВ 2 50 км н/о +27.6 +19.9 63 +34 +34 очень
душно
1013.6 1011.7
18 15.08 СВ 1
{5}
60 км н/о +26.3 +18.9 64 +31 +31 душно 1014.1 1012.2 +24.1 +29.8
19 15.08 З 1-2
{2}
60 км н/о +24.9 +17.9 65 +29 +29 душно 1014.4 1012.4
20 15.08 З 1-2
{2}
60 км н/о +23.8 +17.5 68 +28 +28 душно 1014.8 1012.8
21 15.08 З 1-2
{2}
60 км н/о +22.9 +16.9 69 +28 +28 душно 1014.8 1012.8
22 15.08 З 1-2
{2}
60 км н/о +22.7 +17.2 71 +28 +28 душно 1014.6 1012.6
23 15.08 З 2-2
{2}
60 км н/о +22.4 +17.3 73 +27 +27 душно 1014.3 1012.3
00 16.08 СЗ 1-1
{2}
60 км н/о +22.1 +17.9 77 +27 +27 душно 1014.0 1012.0
01 16.08 З 1-2
{3}
60 км н/о +21.5 +17.3 77 +26 +26 душно 1013.9 1011.9
02 16.08 З 2-2
{2}
60 км н/о +21.2 +15.5 70 +24 +24 комфорт 1013.6 1011.6
03 16.08 З 2-2
{3}
60 км н/о +20.9 +15.4 71 +25 +25 комфорт 1013.6 1011.6
04 16.08 З 1-1
{2}
60 км н/о +20.7 +15.9 74 +25 +25 комфорт 1014.0 1012.0
05 16.08 З 2-3
{3}
60 км н/о +20.5 +14.2 67 +24 +24 комфорт 1014.5 1012.5
06 16.08 СЗ 1
{5}
55 км н/о +23.0 +14.6 59 +27 +27 душно 1015.0 1013.0 +20.5 +26.3
07 16.08 С 1-1
{1}
50 км н/о +26.8 +19.2 63 +32 +32 очень
душно
1015.4 1013.5
08 16.08 В 1-2
{2}
50 км н/о +27.5 +19.6 62 +33 +33 очень
душно
1015.6 1013.7
09 16.08 ЮВ 2-3
{3}
60 км н/о +27.8 +19.3 60 +33 +33 очень
душно
1015.7 1013.8
10 16.08 ЮВ 3-4
{4}
55 км н/о +27.6 +20.2 64 +34 +34 очень
душно
1015.9 1014.0
11 16.08 ЮВ 3-4
{4}
50 км н/о +28.1 +20.6 64 +35 +35 очень
душно
1015.4 1013.5
12 16.08 ЮВ 3-4
{5}
40 км н/о +28.3 +20.3 62 +35 +35 очень
душно
1015.0 1013.1
13 16.08 ЮВ 3-4
{5}
19 км н/о +28.9 +18.1 52 +34 +34 очень
душно
1014.6 1012.7
14 16.08 ЮВ 2-3
{4}
19 км н/о +30.2 +17.3 46 +34 +34 очень
душно
1014.4 1012.5
15 16.08 В 2
{5}
45 км н/о +30.1 +16.1 43 +33 +33 душно 1014.2 1012.3
16 16.08 В 2 19 км н/о +29.7 +17.8 49 +34 +34 очень
душно
1014.2 1012.3
17 16.08 В 1-2
{2}
50 км н/о +28.9 +17.1 49 +33 +33 очень
душно
1014.2 1012.3
18 16.08 СВ 1
{4}
60 км н/о +27.1 +17.6 56 +31 +31 душно 1014.6 1012.7 +23.1 +30.3
19 16.08 СЗ 1 60 км н/о +26.1 +17.5 59 +30 +30 душно 1015.3 1013.3
20 16.08 З 1-2
{2}
60 км н/о +24.8 +17.0 62 +29 +29 душно 1015.7 1013.7
21 16.08 З 2-3
{3}
60 км н/о +24.2 +16.5 62 +28 +28 душно 1016.0 1014.0
22 16.08 З 2-2
{3}
60 км н/о +23.6 +16.4 64 +27 +27 жарко 1016.3 1014.3
23 16.08 З 2-3
{3}
60 км н/о +23.3 +16.1 64 +28 +28 душно 1016.3 1014.3
00 17.08 З 2-2
{3}
60 км н/о +23.1 +16.2 65 +28 +28 душно 1016.1 1014.1
01 17.08 З 1-2
{2}
60 км н/о +22.7 +16.0 66 +27 +27 душно 1015.9 1013.9
02 17.08 З 1-2
{2}
60 км н/о +22.2 +16.0 68 +26 +26 душно 1015.9 1013.9
03 17.08 З 2
{5}
60 км н/о +22.1 +15.9 68 +26 +26 душно 1015.9 1013.9
04 17.08 З 2-2
{3}
60 км н/о +21.7 +16.0 70 +25 +25 комфорт 1016.0 1014.0
05 17.08 З 2-3
{3}
60 км н/о +21.9 +16.0 69 +26 +26 душно 1016.6 1014.6
06 17.08 З 1
{5}
50 км н/о +24.1 +16.6 63 +28 +28 душно 1016.7 1014.7 +21.6 +27.1
07 17.08 СВ 2-3
{3}
50 км н/о +26.4 +20.7 71 +33 +33 очень
душно
1017.2 1015.2
08 17.08 В 2-3
{3}
19 км н/о +27.2 +20.3 66 +34 +34 очень
душно
1017.1 1015.2
09 17.08 В 2-3
{3}
60 км н/о +27.9 +19.1 59 +33 +33 очень
душно
1017.3 1015.4
10 17.08 В 2 60 км н/о +28.4 +19.6 59 +34 +34 очень
душно
1017.4 1015.5
11 17.08 В 2 55 км н/о +28.1 +20.6 64 +35 +35 очень
душно
1017.3 1015.4
12 17.08 В 2
{6}
19 км н/о +29.0 +19.9 58 +35 +35 очень
душно
1017.0 1015.1
13 17.08 В 2 55 км н/о +28.2 +20.2 62 +35 +35 очень
душно
1017.0 1015.1
14 17.08 В 2 55 км н/о +28.3 +20.3 62 +35 +35 очень
душно
1016.8 1014.9
15 17.08 ЮВ 1
{5}
60 км н/о +28.3 +20.3 62 +35 +35 очень
душно
1016.6 1014.7
16 17.08 ЮВ 2-3
{3}
45 км н/о +28.1 +20.4 63 +35 +35 очень
душно
1016.3 1014.4
17 17.08 ЮВ 1-2
{3}
55 км н/о +27.3 +20.6 67 +34 +34 очень
душно
1016.1 1014.2
18 17.08 Ю 1
{3}
60 км н/о +26.5 +20.6 70 +33 +33 очень
душно
1016.1 1014.2 +24.2 +29.1
19 17.08 Ю 1-1
{2}
55 км н/о +25.7 +20.9 75 +32 +32 очень
душно
1016.3 1014.3
20 17.08 З 1-2
{2}
55 км н/о +24.8 +20.3 76 +31 +31 очень
душно
1016.6 1014.6
21 17.08 З 1-2
{2}
55 км н/о +24.2 +20.1 78 +30 +30 очень
душно
1016.6 1014.6
22 17.08 З 1-2
{2}
55 км н/о +23.5 +19.6 79 +29 +29 душно 1016.6 1014.6
23 17.08 З 1 55 км н/о +23.0 +19.2 79 +29 +29 очень
душно
1016.7 1014.7 0.6
00 18.08 З 1
{4}
55 км 10/10 600 м
[]
+23.4 +18.9 76 +30 +30 очень
душно
1016.5 1014.5 0.6
01 18.08 З 2 60 км 10/10 720 м
[]
+23.3 +18.0 72 +29 +29 душно 1016.4 1014.4
02 18.08 З 2 60 км н/о +23.0 +16.8 68 +28 +28 душно 1016.3 1014.3
03 18.08 З 2-3
{3}
60 км н/о +22.1 +16.1 69 +26 +26 душно 1015.9 1013.9
04 18.08 З 2-3
{3}
60 км н/о +21.6 +16.1 71 +25 +25 комфорт 1016.0 1014.0
05 18.08 З 2 60 км н/о +21.5 +16.0 71 +25 +25 комфорт 1016.2 1014.2
06 18.08 З 2
{5}
55 км н/о +22.5 +15.3 64 +26 +26 жарко 1016.3 1014.3 +21.3 +26.5
07 18.08 штиль 0-1
{2}
45 км н/о +27.0 +19.9 65 +33 +33 очень
душно
1016.2 1014.3
08 18.08 ЮВ 2-3
{3}
60 км н/о +27.5 +21.1 68 +35 +35 очень
душно
1016.5 1014.6
09 18.08 ЮВ 3-3
{3}
55 км н/о +27.8 +21.1 67 +35 +35 очень
душно
1016.6 1014.7
10 18.08 ЮВ 3-4
{4}
19 км н/о +28.0 +21.1 66 +35 +35 очень
душно
1016.7 1014.8
11 18.08 ЮВ 3-4
{4}
40 км н/о +28.0 +19.8 61 +34 +34 очень
душно
1016.6 1014.7
12 18.08 Ю 3-4
{4}
35 км н/о +28.6 +18.7 55 +34 +34 очень
душно
1016.3 1014.4
13 18.08 ЮВ 3-4
{4}
19 км н/о +28.6 +19.0 56 +34 +34 очень
душно
1016.1 1014.2
14 18.08 ЮВ 2-3
{4}
35 км н/о +28.0 +19.0 58 +33 +33 очень
душно
1016.0 1014.1
15 18.08 ЮВ 2-3
{3}
50 км н/о +27.9 +20.5 64 +35 +35 очень
душно
1015.7 1013.8
16 18.08 Ю 2 60 км н/о +27.4 +21.0 68 +34 +34 очень
душно
1015.6 1013.7
17 18.08 Ю 2-3
{3}
50 км н/о +26.6 +21.8 75 +34 +34 очень
душно
1015.2 1013.3
18 18.08 Ю 2
{5}
60 км н/о +25.8 +21.7 78 +33 +33 очень
душно
1015.3 1013.4 +22.6 +28.7
19 18.08 Ю 1 60 км н/о +25.3 +21.6 80 +32 +32 очень
душно
1015.5 1013.5
20 18.08 З 1-1
{2}
55 км н/о +24.7 +21.2 81 +31 +31 очень
душно
1015.9 1013.9
21 18.08 З 1-2
{2}
60 км н/о +23.8 +19.7 78 +29 +29 душно 1016.1 1014.1
22 18.08 З 1-2
{2}
60 км н/о +23.3 +18.8 76 +30 +30 очень
душно
1016.1 1014.1 1
23 18.08 З 1-2
{2}
60 км н/о +23.0 +18.3 75 +29 +29 очень
душно
1016.1 1014.1
00 19.08 З 1-2
{2}
60 км н/о +22.6 +17.9 75 +28 +28 душно 1016.0 1014.0 1
01 19.08 З 1 60 км н/о +22.5 +17.4 73 +27 +27 душно 1015.6 1013.6
02 19.08 З 2-2
{2}
60 км н/о +22.2 +17.3 74 +27 +27 душно 1015.9 1013.9
03 19.08 З 1
{4}
60 км н/о +21.8 +17.0 74 +26 +26 душно 1015.6 1013.6
04 19.08 З 2-2
{2}
60 км н/о +21.5 +16.7 74 +25 +25 комфорт 1015.6 1013.6
05 19.08 З 2-2
{2}
60 км н/о +21.4 +16.1 72 +25 +25 комфорт 1016.1 1014.1
06 19.08 З 1
{4}
60 км н/о +23.6 +16.1 63 +27 +27 жарко 1016.1 1014.1 +21.4 +25.8
07 19.08 ЮВ 1-2
{2}
60 км н/о +26.9 +20.3 67 +33 +33 очень
душно
1016.1 1014.2
08 19.08 ЮВ 2-3
{3}
60 км н/о +27.8 +21.6 69 +36 +36 очень
душно
1016.4 1014.5
09 19.08 ЮВ 3-4
{4}
50 км н/о +28.1 +21.1 66 +35 +35 очень
душно
1016.7 1014.8
10 19.08 Ю 3-4
{4}
45 км н/о +28.8 +21.3 64 +36 +36 очень
душно
1016.9 1015.0
11 19.08 Ю 3-4
{5}
35 км н/о +28.8 +21.6 65 +37 +37 очень
душно
1016.9 1015.0
12 19.08 Ю 3-4
{5}
19 км н/о +28.9 +21.7 65 +37 +37 очень
душно
1017.0 1015.1
13 19.08 Ю 3-4
{5}
35 км н/о +28.9 +21.9 66 +37 +37 очень
душно
1017.1 1015.2
14 19.08 Ю 3 19 км н/о +28.5 +21.5 66 +36 +36 очень
душно
1016.9 1015.0
15 19.08 Ю 3-4
{4}
35 км н/о +28.5 +21.8 67 +37 +37 очень
душно
1016.9 1015.0
16 19.08 Ю 2-3
{4}
55 км н/о +28.1 +21.4 67 +36 +36 очень
душно
1016.7 1014.8
17 19.08 Ю 2-3
{3}
60 км н/о +27.5 +21.1 68 +35 +35 очень
душно
1016.7 1014.8
18 19.08 Ю 1
{6}
60 км н/о +26.6 +20.9 71 +33 +33 очень
душно
1016.9 1015.0 +23.6 +29.2
19 19.08 Ю 1-2
{2}
60 км н/о +26.0 +21.9 78 +33 +33 очень
душно
1017.1 1015.1
20 19.08 З 1 60 км н/о +25.2 +20.7 76 +31 +31 очень
душно
1017.5 1015.5
21 19.08 З 1-1
{2}
60 км н/о +24.5 +20.2 77 +30 +30 очень
душно
1017.6 1015.6
22 19.08 З 1-2
{2}
60 км н/о +24.1 +19.8 77 +29 +29 душно 1017.8 1015.8
23 19.08 З 1-2
{2}
55 км н/о +23.7 +19.6 78 +29 +29 душно 1017.7 1015.7
00 20.08 З 1-1
{2}
55 км н/о +23.5 +19.6 79 +29 +29 душно 1017.4 1015.4
01 20.08 З 1-2
{2}
50 км н/о +23.1 +19.5 80 +30 +30 очень
душно
1017.2 1015.2
02 20.08 З 1 50 км н/о +22.9 +19.1 79 +29 +29 очень
душно
1016.9 1014.9
03 20.08 З 1
{3}
55 км н/о +22.7 +18.7 78 +28 +28 душно 1016.6 1014.6
04 20.08 З 1 45 км н/о +22.0 +18.6 81 +27 +27 душно 1016.6 1014.6
05 20.08 З 1-2
{2}
50 км н/о +22.0 +18.0 78 +27 +27 душно 1016.7 1014.7
06 20.08 штиль 0
{3}
50 км н/о +24.5 +18.0 67 +29 +29 душно 1016.7 1014.7 +21.9 +26.5
07 20.08 Ю 2-2
{2}
45 км н/о +26.6 +21.1 72 +34 +34 очень
душно
1016.8 1014.9
08 20.08 Ю 3-4
{4}
50 км н/о +27.4 +21.7 71 +35 +35 очень
душно
1017.0 1015.1
09 20.08 Ю 3-4
{4}
45 км н/о +28.5 +21.5 66 +36 +36 очень
душно
1017.3 1015.4
10 20.08 Ю 3 40 км н/о +28.8 +21.1 63 +36 +36 очень
душно
1017.5 1015.6
11 20.08 ЮВ 3-4
{4}
35 км н/о +29.2 +21.7 64 +37 +37 очень
душно
1017.3 1015.4
12 20.08 Ю 3-4
{5}
50 км н/о +29.0 +21.2 63 +37 +37 очень
душно
1017.1 1015.2
13 20.08 ЮВ 3-4
{4}
30 км н/о +29.1 +21.8 65 +37 +37 очень
душно
1016.8 1014.9
14 20.08 Ю 3-4
{4}
30 км н/о +28.7 +22.2 68 +37 +37 очень
душно
1016.7 1014.8
15 20.08 Ю 6-4
{8}
50 км н/о +28.5 +22.5 70 +37 +37 очень
душно
1016.5 1014.6
16 20.08 Ю 6-4
{9}
35 км н/о +28.2 +21.7 68 +36 +36 очень
душно
1016.2 1014.3
17 20.08 Ю 6-5
{9}
40 км н/о +27.6 +21.9 71 +36 +36 очень
душно
1016.0 1014.1
18 20.08 Ю 3
{9}
35 км н/о +26.7 +21.9 75 +34 +34 очень
душно
1016.4 1014.5 +24.6 +29.5
19 20.08 С 2-3
{4}
35 км н/о +25.9 +21.6 77 +33 +33 очень
душно
1016.9 1014.9
20 20.08 СЗ 2-3
{3}
30 км н/о +25.6 +21.7 79 +33 +33 очень
душно
1017.0 1015.0
21 20.08 СЗ 1-2
{3}
50 км н/о +25.1 +20.8 77 +31 +31 очень
душно
1016.9 1014.9
22 20.08 З 1-2
{2}
40 км н/о +24.0 +19.3 75 +29 +29 душно 1017.1 1015.1
23 20.08 З 1-2
{2}
50 км н/о +23.5 +18.6 74 +28 +28 душно 1017.0 1015.0
00 21.08 З 1
{4}
50 км 9/9 300 м
[]
+23.4 +18.5 74 +30 +30 очень
душно
1016.9 1014.9
01 21.08 З 2-2
{3}
55 км н/о +22.8 +17.5 72 +28 +28 душно 1016.7 1014.7
02 21.08 З 2-2
{3}
55 км н/о +22.6 +17.3 72 +27 +27 душно 1016.7 1014.7
03 21.08 З 2-3
{3}
55 км н/о +22.2 +16.5 70 +26 +26 душно 1016.7 1014.7
04 21.08 З 2-3
{3}
60 км н/о +22.1 +16.1 69 +26 +26 душно 1016.7 1014.7
05 21.08 З 1-2
{2}
55 км н/о +22.3 +16.3 69 +27 +27 душно 1017.2 1015.2
06 21.08 СЗ 1
{4}
50 км н/о +24.6 +17.6 65 +29 +29 душно 1017.5 1015.5 +22.0 +26.6
07 21.08 С 2-2
{2}
30 км н/о +26.5 +19.4 65 +32 +32 очень
душно
1017.6 1015.6
08 21.08 СВ 2-3
{3}
19 км н/о +27.9 +21.0 66 +35 +35 очень
душно
1017.6 1015.7

 

Местоположение метеостанции Соленцара (Франция): широта 41.92 долгота 9.40 высота над уровнем моря 22 м.

В архиве по умолчанию представлена погода в Соленцаре за последнюю неделю. Архивные данные за месяц целиком и за предыдущие месяцы, начиная с января 2011 года, Вы можете получить, выбрав интересующий диапазон дат из раскрывающегося списка и нажав кнопку "Ввод!".


*Определитесь, кто Вы:
робот инопланетянин человек

Внимание! Время в таблицах - всемирное. Для получения местного времени необходимо прибавить поправку, которая равна 1 ч.

Смотрите также архив погоды в соседних городах и на ближайших метеорологических станциях:

Погода в Алистро (Франция) (40 км)
Погода в Аяччо (Франция) (50 км)
Погода в Фигари (Франция) (53 км)
Погода на Мысе Пертюзато (Франция) (64 км)
Погода в Ла Парате (Франция) (65 км)
Погода в Бастии (Франция) (70 км)
Погода в Кальви (Франция) (84 км)
Погода в Л’Иль-Русе (Франция) (88 км)
Погода на Мысе Сагро (Франция) (98 км)
Погода в Ольвии (Италия) (114 км)

Пояснения к столбцам:

Ветер - указаны скорость ветра в м/с - средняя за 10 мин, порывы в срок и между сроками (в фигурных скобках) и направление, откуда дует ветер: С - северный, СВ - северо-восточный, В - восточный, ЮВ - юго-восточный, Ю - южный, ЮЗ - юго-западный, З - западный, СЗ - северо-западный.
Видимость - горизонтальная дальность видимости в метрах или километрах. При видимости от 1 до 10 км при отсутствии осадков обычно наблюдается дымка, при ухудшении видимости до 1 км и менее - туман. В сухую погоду видимость может ухудшаться дымом, пылью или мглою.
Явления - указаны атмосферные явления, наблюдавшиеся в срок или в последний час перед сроком; фигурными скобками обозначены явления, наблюдавшиеся между сроками (за 1-3 часа до срока); квадратными скобками обозначены град или гололедные отложения с указанием их диаметра в мм.
Облачность - указаны через наклонную черту общая и нижняя облачность в баллах и высота нижней границы облаков в метрах; квадратными скобками обозначены формы облаков: Ci - перистые, Cs - перисто-слоистые, Cc - перисто-кучевые, Ac - высококучевые, As - высокослоистые, Sc - слоисто-кучевые, Ns - слоисто-дождевые, Cu - кучевые, Cb - кучево-дождевые. Подробнее классификацию облаков см. в Атласе облаков (PDF).
T - Температура воздуха - температура, измеренная на высоте 2 м над землей.
Td - Температура точки росы - температура, при понижении до которой содержащийся в воздухе водяной пар достигнет насыщения.
f - Относительная влажность воздуха - влажноcть воздуха, измеренная на высоте 2 м над землей.
Te - Эффективная температура - температура, которую ощущает одетый по сезону человек в тени. Характеристика душности погоды. При расчете учитывается влияние влажности воздуха и скорости ветра на теплоощущения человека.
Tes - Эффективная температура на солнце - температура, которую ощущает человек, с поправкой на солнечный нагрев. Характеристика знойности погоды. Зависит от высоты солнца над горизонтом, облачности и скорости ветра. Ночью, в пасмурную погоду, а также при ветре 12 м/с и более поправка равна нулю.
P - Атмосферное давление - приведенное к уровню моря атмосферное давление.
Po - Атмосферное давление - измеренное на уровне метеостанции атмосферное давление.
Tmin - Минимальная температура - минимум температуры воздуха на высоте 2 м над землей.
Tmax - Максимальная температура - максимум температуры воздуха на высоте 2 м над землей.
R - Количество осадков - Количество выпавших осадков за период времени, мм. При наведении курсора мыши на число - период времени, за который выпало указанное количество осадков.
R24 - Количество осадков - Количество выпавших осадков за 24 часа, мм.
S - Снежный покров - Высота снежного покрова, см. При наведении курсора мыши на число - состояние снежного покрова и степень покрытия местности в баллах.